Weather History for Houston, TX

Change the Weather History Date:

Wednesday, September 18, 2013

  Actual Average (KSGR) Record (KSGR)
Temperature  
Mean Temperature 83 °F -  
Max Temperature 95 °F 88 °F 96 °F (2005)
Min Temperature 71 °F 69 °F 53 °F (1981)
Cooling Degree Days 18    
Growing Degree Days 33 (Base 50)    
Moisture  
Dew Point 72 °F    
Average Humidity 74    
Maximum Humidity 100    
Minimum Humidity 39    
Precipitation  
Precipitation 0.00 in - - ()
Sea Level Pressure  
Sea Level Pressure 29.97 in    
Wind  
Wind Speed 5 mph (East)    
Max Wind Speed 18 mph    
Max Gust Speed 25 mph    
Visibility 9 miles    
Events      
Averages and records for this station are not official NWS values.
T = Trace of Precipitation, MM = Missing Value Source: NWS Daily Summary

Daily Weather History Graph

Daily Weather History Graph

Search for Another Location

Airport:

Trip Planner

Search our weather history database for the weather conditions in past years. The results will help you decide how hot, cold, wet, or windy it might be!

Date:

Astronomy

Sep. 18, 2013 Rise Set
Actual Time 7:09 AM CDT 7:24 PM CDT
Civil Twilight 6:46 AM CDT 7:48 PM CDT
Nautical Twilight 6:18 AM CDT 8:16 PM CDT
Astronomical Twilight 5:50 AM CDT 8:44 PM CDT
Moon 6:49 PM CDT (9/18) 6:14 AM CDT (9/18)
Length of Visible Light 13h 02m
Length of Day
12h 14m
Waxing Gibbous, 99% of the Moon is Illuminated
Sep 18
Waxing Gibbous
Sep 19
Full
Sep 26
Last Quarter
Oct 4
New
Oct 11
First Quarter

Hourly Weather History & Observations

Time (CDT) Temp. Heat Index Dew Point Humidity Pressure Visibility Wind Dir Wind Speed Gust Speed Precip Events Conditions
12:15 AM 77.0 °F - 75.2 °F 94% 30.01 in 10.0 mi Calm Calm - N/A   Clear
12:35 AM 77.0 °F - 75.2 °F 94% 30.01 in 10.0 mi Calm Calm - N/A   Clear
12:55 AM 73.4 °F - 73.4 °F 100% 30.01 in 10.0 mi Calm Calm - N/A   Clear
1:15 AM 75.2 °F - 75.2 °F 100% 30.01 in 10.0 mi Calm Calm - N/A   Clear
1:35 AM 75.2 °F - 75.2 °F 100% 30.01 in 10.0 mi Calm Calm - N/A   Clear
1:55 AM 75.2 °F - 73.4 °F 94% 30.01 in 10.0 mi Calm Calm - N/A   Clear
2:15 AM 73.4 °F - 73.4 °F 100% 30.00 in 9.0 mi Calm Calm - N/A   Clear
2:35 AM 71.6 °F - 71.6 °F 100% 30.00 in 7.0 mi Calm Calm - N/A   Clear
2:55 AM 73.4 °F - 73.4 °F 100% 29.99 in 8.0 mi Calm Calm - N/A   Clear
3:15 AM 73.4 °F - 73.4 °F 100% 29.99 in 8.0 mi Calm Calm - N/A   Clear
3:35 AM 71.6 °F - 71.6 °F 100% 29.98 in 5.0 mi Calm Calm - N/A   Clear
3:55 AM 71.6 °F - 71.6 °F 100% 29.98 in 5.0 mi NNE 3.5 mph - N/A   Clear
4:15 AM 71.6 °F - 71.6 °F 100% 29.98 in 6.0 mi Calm Calm - N/A   Clear
4:35 AM 71.6 °F - 71.6 °F 100% 29.97 in 6.0 mi Calm Calm - N/A   Scattered Clouds
4:55 AM 71.6 °F - 71.6 °F 100% 29.97 in 5.0 mi NNE 3.5 mph - N/A   Overcast
5:15 AM 73.4 °F - 73.4 °F 100% 29.97 in 5.0 mi NE 4.6 mph - N/A   Overcast
5:35 AM 73.4 °F - 73.4 °F 100% 29.97 in 5.0 mi Calm Calm - N/A   Mostly Cloudy
5:55 AM 71.6 °F - 71.6 °F 100% 29.98 in 5.0 mi Calm Calm - N/A   Partly Cloudy
6:15 AM 71.6 °F - 71.6 °F 100% 29.97 in 5.0 mi NNE 4.6 mph - N/A   Clear
6:35 AM 73.4 °F - 73.4 °F 100% 29.97 in 6.0 mi NNE 5.8 mph - N/A   Clear
6:55 AM 73.4 °F - 73.4 °F 100% 29.98 in 7.0 mi NNE 6.9 mph - N/A   Clear
7:15 AM 73.4 °F - 73.4 °F 100% 29.99 in 7.0 mi NNE 5.8 mph - N/A   Clear
7:35 AM 73.4 °F - 73.4 °F 100% 29.99 in 5.0 mi NNE 5.8 mph - N/A   Clear
7:55 AM 75.2 °F - 75.2 °F 100% 29.99 in 7.0 mi NE 8.1 mph - N/A   Clear
8:15 AM 77.0 °F - 77.0 °F 100% 30.00 in 7.0 mi NE 8.1 mph - N/A   Clear
8:35 AM 80.6 °F 87.1 °F 77.0 °F 89% 30.00 in 9.0 mi NE 3.5 mph - N/A   Clear
8:55 AM 82.4 °F 90.9 °F 77.0 °F 84% 30.01 in 10.0 mi ENE 6.9 mph - N/A   Clear
9:15 AM 82.4 °F 90.9 °F 77.0 °F 84% 30.01 in 10.0 mi ENE 6.9 mph - N/A   Clear
9:35 AM 84.2 °F 92.3 °F 75.2 °F 74% 30.02 in 10.0 mi ENE 6.9 mph - N/A   Mostly Cloudy
9:55 AM 84.2 °F 90.9 °F 73.4 °F 70% 30.02 in 10.0 mi East 10.4 mph - N/A   Mostly Cloudy
10:15 AM 86.0 °F 93.4 °F 73.4 °F 66% 30.02 in 10.0 mi East 10.4 mph - N/A   Mostly Cloudy
10:35 AM 86.0 °F 93.4 °F 73.4 °F 66% 30.02 in 10.0 mi ENE 10.4 mph - N/A   Scattered Clouds
10:55 AM 87.8 °F 93.8 °F 71.6 °F 58% 30.02 in 10.0 mi East 10.4 mph - N/A   Scattered Clouds
11:15 AM 89.6 °F 96.2 °F 71.6 °F 55% 30.02 in 10.0 mi ESE 8.1 mph - N/A   Scattered Clouds
11:35 AM 89.6 °F 96.2 °F 71.6 °F 55% 30.01 in 10.0 mi East 10.4 mph 17.3 mph N/A   Partly Cloudy
11:55 AM 89.6 °F 96.2 °F 71.6 °F 55% 30.00 in 10.0 mi ENE 9.2 mph - N/A   Scattered Clouds
12:15 PM 91.4 °F 98.4 °F 71.6 °F 52% 30.00 in 10.0 mi East 9.2 mph - N/A   Partly Cloudy
12:35 PM 91.4 °F 95.4 °F 68.0 °F 46% 29.99 in 10.0 mi East 8.1 mph - N/A   Partly Cloudy
12:55 PM 91.4 °F 95.4 °F 68.0 °F 46% 29.99 in 10.0 mi ESE 5.8 mph 18.4 mph N/A   Clear
1:15 PM 93.2 °F 97.7 °F 68.0 °F 44% 29.98 in 10.0 mi East 10.4 mph 17.3 mph N/A   Partly Cloudy
1:35 PM 93.2 °F 97.7 °F 68.0 °F 44% 29.97 in 10.0 mi ESE 3.5 mph - N/A   Partly Cloudy
1:55 PM 95.0 °F 98.5 °F 66.2 °F 39% 29.96 in 10.0 mi East 13.8 mph - N/A   Partly Cloudy
2:15 PM 93.2 °F 97.7 °F 68.0 °F 44% 29.95 in 10.0 mi East 9.2 mph 16.1 mph N/A   Clear
2:35 PM 95.0 °F 98.5 °F 66.2 °F 39% 29.94 in 10.0 mi SE 10.4 mph - N/A   Partly Cloudy
2:55 PM 91.4 °F 95.4 °F 68.0 °F 46% 29.94 in 10.0 mi ESE 12.7 mph 17.3 mph N/A   Scattered Clouds
3:15 PM 93.2 °F 97.7 °F 68.0 °F 44% 29.93 in 10.0 mi ESE 10.4 mph 18.4 mph N/A   Partly Cloudy
3:35 PM 93.2 °F 100.5 °F 71.6 °F 49% 29.93 in 10.0 mi ESE 15.0 mph - N/A   Clear
3:55 PM 93.2 °F 97.7 °F 68.0 °F 44% 29.92 in 10.0 mi East 15.0 mph 18.4 mph N/A   Partly Cloudy
4:15 PM 93.2 °F 97.7 °F 68.0 °F 44% 29.92 in 10.0 mi East 18.4 mph 24.2 mph N/A   Partly Cloudy
4:35 PM 91.4 °F 96.8 °F 69.8 °F 49% 29.92 in 10.0 mi SE 15.0 mph - N/A   Clear
4:55 PM 91.4 °F 98.4 °F 71.6 °F 52% 29.92 in 10.0 mi ESE 15.0 mph 25.3 mph N/A   Clear
5:15 PM 91.4 °F 96.8 °F 69.8 °F 49% 29.91 in 10.0 mi ESE 16.1 mph - N/A   Clear
5:35 PM 91.4 °F 96.8 °F 69.8 °F 49% 29.91 in 10.0 mi ESE 16.1 mph 21.9 mph N/A   Clear
5:55 PM 91.4 °F 96.8 °F 69.8 °F 49% 29.90 in 10.0 mi ESE 15.0 mph 24.2 mph N/A   Clear
6:15 PM 89.6 °F 94.7 °F 69.8 °F 52% 29.90 in 10.0 mi East 13.8 mph - N/A   Clear
6:35 PM 89.6 °F 93.4 °F 68.0 °F 49% 29.91 in 10.0 mi East 13.8 mph - N/A   Clear
6:55 PM 89.6 °F 93.4 °F 68.0 °F 49% 29.91 in 10.0 mi East 13.8 mph - N/A   Clear
7:15 PM 87.8 °F 91.4 °F 68.0 °F 52% 29.91 in 10.0 mi ESE 12.7 mph - N/A   Clear
7:35 PM 86.0 °F 89.4 °F 68.0 °F 55% 29.92 in 10.0 mi ESE 10.4 mph - N/A   Clear
7:55 PM 84.2 °F 88.4 °F 69.8 °F 62% 29.92 in 10.0 mi ESE 6.9 mph - N/A   Partly Cloudy
8:15 PM 84.2 °F 88.4 °F 69.8 °F 62% 29.93 in 10.0 mi ESE 4.6 mph - N/A   Clear
8:35 PM 82.4 °F 87.2 °F 71.6 °F 70% 29.94 in 10.0 mi ESE 5.8 mph - N/A   Clear
8:55 PM 82.4 °F 88.2 °F 73.4 °F 74% 29.94 in 10.0 mi ESE 6.9 mph - N/A   Clear
9:15 PM 82.4 °F 88.2 °F 73.4 °F 74% 29.95 in 10.0 mi ESE 8.1 mph - N/A   Clear
9:35 PM 82.4 °F 88.2 °F 73.4 °F 74% 29.95 in 10.0 mi ESE 10.4 mph - N/A   Clear
9:55 PM 82.4 °F 88.2 °F 73.4 °F 74% 29.96 in 10.0 mi ESE 8.1 mph - N/A   Clear
10:15 PM 80.6 °F 85.4 °F 73.4 °F 79% 29.96 in 10.0 mi ESE 6.9 mph - N/A   Clear
10:35 PM 80.6 °F 86.2 °F 75.2 °F 84% 29.96 in 10.0 mi ESE 8.1 mph - N/A   Clear
10:55 PM 80.6 °F 86.2 °F 75.2 °F 84% 29.96 in 10.0 mi ESE 6.9 mph - N/A   Clear
11:15 PM 80.6 °F 86.2 °F 75.2 °F 84% 29.96 in 10.0 mi East 5.8 mph - N/A   Clear
11:35 PM 80.6 °F 86.2 °F 75.2 °F 84% 29.96 in 10.0 mi East 4.6 mph - N/A   Clear
11:55 PM 80.6 °F 86.2 °F 75.2 °F 84% 29.96 in 10.0 mi East 4.6 mph - N/A   Partly Cloudy